contact:dominique.lefevre@mio.osupytheas.fr, maurice.libes@osupytheas.fr, didier.mallarino@osupytheas.fr
Project:EMSO http://www.emso-fr.org/EMSO-France
Depth: 2436.0 m
Title:EMSO Ligure Ouest : Data MII capteur AQUADOPP
Date,Latitude,Longitude,X_East,Y_North,Z_Up,Amplitude_X,Amplitude_Y,Amplitude_Z,Batterie,SoundSpeed,Heading,Pitch,Roll,Pressure,TIS,Speed,Direction
, degrees North, degrees East, m.s-1, m.s-1,m.s-1, 1, 1, 1, Volt, m.s-1, degree, degree, degree, dbar, degree_C, m.s-1, degree
2023-09-03T00:04:03,42.805,6.029,-0.005,0.015,-0.016,104.0,103.0,101.0,13.3,1505.2,353.2,-0.7,1.8,2471.606,13.29,0.015,341.6
2023-09-03T00:07:03,42.805,6.029,-0.008,0.007,-0.009,103.0,102.0,101.0,13.3,1505.2,335.5,-0.8,1.8,2471.549,13.29,0.01,311.2
2023-09-03T00:10:03,42.805,6.029,-0.031,0.018,-0.021,103.0,103.0,101.0,13.4,1505.2,334.8,-0.8,1.8,2471.564,13.29,0.035,300.1
2023-09-03T00:13:03,42.805,6.029,-0.006,-0.003,-0.047,106.0,103.0,101.0,13.4,1505.2,333.4,-0.8,1.8,2471.54,13.29,0.006,243.4
2023-09-03T00:16:03,42.805,6.029,0.006,0.033,-0.01,103.0,104.0,101.0,13.4,1505.2,325.7,-0.8,1.8,2471.508,13.29,0.033,10.3
2023-09-03T00:19:03,42.805,6.029,0.0,0.026,0.02,103.0,102.0,102.0,13.4,1505.2,346.7,-0.8,1.8,2471.543,13.29,0.026,0.0
2023-09-03T00:22:03,42.805,6.029,0.015,0.01,-0.013,105.0,102.0,101.0,13.4,1505.2,348.0,-0.8,1.8,2471.527,13.29,0.018,56.3
2023-09-03T00:25:03,42.805,6.029,-0.016,0.035,-0.001,103.0,103.0,102.0,13.4,1505.2,350.7,-0.8,1.8,2471.516,13.29,0.038,335.4
2023-09-03T00:28:03,42.805,6.029,0.003,0.003,-0.041,104.0,103.0,101.0,13.4,1505.2,324.7,-0.8,1.8,2471.533,13.29,0.004,45.0
2023-09-03T00:31:03,42.805,6.029,0.009,0.009,0.017,105.0,105.0,101.0,13.3,1505.2,352.6,-0.7,1.8,2471.535,13.29,0.012,45.0
2023-09-03T00:34:03,42.805,6.029,0.012,0.012,0.001,102.0,104.0,103.0,13.4,1505.2,326.8,-0.7,1.8,2471.537,13.29,0.016,45.0
2023-09-03T00:37:03,42.805,6.029,-0.024,0.005,-0.033,104.0,105.0,102.0,13.4,1505.2,331.6,-0.8,1.8,2471.509,13.29,0.024,281.8
2023-09-03T00:40:03,42.805,6.029,-0.007,0.005,-0.008,102.0,103.0,101.0,13.3,1505.2,323.3,-0.7,1.8,2471.506,13.29,0.008,305.5
2023-09-03T00:43:03,42.805,6.029,0.012,0.02,-0.02,104.0,102.0,101.0,13.4,1505.2,342.3,-0.8,1.9,2471.495,13.29,0.023,31.0
2023-09-03T00:46:03,42.805,6.029,-0.012,0.016,-0.019,105.0,103.0,102.0,13.4,1505.2,334.4,-0.7,1.8,2471.48,13.29,0.02,323.1
2023-09-03T00:49:03,42.805,6.029,0.005,-0.003,-0.012,102.0,103.0,102.0,13.4,1505.2,334.2,-0.8,1.8,2471.52,13.29,0.005,121.0
2023-09-03T00:52:03,42.805,6.029,0.003,0.017,0.006,104.0,102.0,100.0,13.4,1505.2,337.8,-0.8,1.8,2471.484,13.29,0.017,10.0
2023-09-03T00:55:03,42.805,6.029,-0.024,0.023,-0.019,103.0,103.0,102.0,13.4,1505.2,331.3,-0.8,1.8,2471.477,13.29,0.033,313.8
2023-09-03T00:58:03,42.805,6.029,0.0,0.026,-0.023,104.0,103.0,102.0,13.4,1505.2,330.3,-0.7,1.8,2471.471,13.29,0.026,0.0
2023-09-03T01:04:03,42.805,6.029,-0.002,0.045,-0.012,104.0,104.0,102.0,13.4,1505.2,340.0,-0.8,1.8,2471.544,13.29,0.045,357.5
2023-09-03T01:07:03,42.805,6.029,-0.01,0.036,-0.006,103.0,102.0,101.0,13.4,1505.2,336.5,-0.8,1.8,2471.536,13.29,0.037,344.5
2023-09-03T01:10:03,42.805,6.029,0.009,0.023,0.003,103.0,103.0,102.0,13.3,1505.2,345.0,-0.7,1.8,2471.512,13.29,0.024,21.4
2023-09-03T01:13:03,42.805,6.029,0.019,0.023,0.008,101.0,103.0,102.0,13.3,1505.2,343.7,-0.7,1.8,2471.467,13.29,0.029,39.6
2023-09-03T01:16:03,42.805,6.029,-0.002,0.034,-0.005,104.0,104.0,101.0,13.4,1505.2,348.6,-0.8,1.8,2471.466,13.29,0.034,356.6
2023-09-03T01:19:03,42.805,6.029,0.004,0.016,-0.021,103.0,103.0,102.0,13.3,1505.2,326.0,-0.8,1.8,2471.47,13.29,0.016,14.0
2023-09-03T01:22:03,42.805,6.029,-0.004,0.009,-0.01,101.0,103.0,103.0,13.4,1505.2,328.3,-0.8,1.8,2471.444,13.29,0.009,336.0
2023-09-03T01:25:03,42.805,6.029,0.004,0.019,-0.01,104.0,103.0,101.0,13.4,1505.2,348.6,-0.8,1.8,2471.466,13.29,0.019,11.9
2023-09-03T01:28:03,42.805,6.029,-0.01,-0.001,-0.041,104.0,103.0,102.0,13.4,1505.2,322.7,-0.8,1.8,2471.472,13.29,0.01,264.3
2023-09-03T01:31:03,42.805,6.029,0.01,0.011,0.012,102.0,102.0,102.0,13.4,1505.2,333.4,-0.8,1.8,2471.494,13.29,0.014,42.3
2023-09-03T01:34:03,42.805,6.029,-0.016,0.022,-0.033,104.0,102.0,101.0,13.4,1505.2,322.9,-0.8,1.8,2471.449,13.29,0.027,324.0
2023-09-03T01:37:03,42.805,6.029,-0.012,0.021,-0.029,103.0,103.0,102.0,13.3,1505.2,327.3,-0.8,1.8,2471.435,13.29,0.024,330.3
2023-09-03T01:40:03,42.805,6.029,0.024,0.003,-0.008,103.0,102.0,101.0,13.4,1505.2,340.2,-0.8,1.8,2471.47,13.29,0.024,82.9
2023-09-03T01:43:03,42.805,6.029,-0.004,0.022,0.024,104.0,104.0,101.0,13.3,1505.2,331.0,-0.7,1.8,2471.474,13.29,0.022,349.7
2023-09-03T01:46:03,42.805,6.029,-0.014,0.015,-0.001,102.0,103.0,102.0,13.3,1505.2,342.8,-0.8,1.8,2471.454,13.29,0.02,317.0
2023-09-03T01:49:03,42.805,6.029,0.004,0.01,-0.007,103.0,103.0,102.0,13.4,1505.2,332.4,-0.8,1.8,2471.42,13.29,0.01,21.8
2023-09-03T01:52:03,42.805,6.029,0.002,0.018,-0.017,104.0,103.0,101.0,13.4,1505.2,348.2,-0.8,1.8,2471.449,13.29,0.018,6.3
2023-09-03T01:55:03,42.805,6.029,-0.005,0.013,-0.008,104.0,103.0,101.0,13.3,1505.2,345.6,-0.8,1.8,2471.426,13.29,0.013,339.0
2023-09-03T01:58:03,42.805,6.029,0.019,0.006,0.001,103.0,103.0,101.0,13.4,1505.2,349.3,-0.8,1.8,2471.461,13.29,0.019,72.5
2023-09-03T02:04:03,42.805,6.029,-0.006,0.037,-0.003,104.0,102.0,102.0,13.4,1505.2,339.1,-0.8,1.8,2471.445,13.29,0.037,350.8
2023-09-03T02:07:03,42.805,6.029,-0.02,0.02,-0.046,103.0,104.0,102.0,13.4,1505.2,324.3,-0.8,1.8,2471.439,13.29,0.028,315.0
2023-09-03T02:10:03,42.805,6.029,-0.009,0.004,-0.029,103.0,102.0,102.0,13.4,1505.2,333.8,-0.8,1.8,2471.47,13.29,0.009,294.0
2023-09-03T02:13:03,42.805,6.029,0.003,0.004,-0.006,103.0,102.0,101.0,13.4,1505.2,335.2,-0.8,1.8,2471.448,13.29,0.005,36.9
2023-09-03T02:16:03,42.805,6.029,-0.009,0.029,-0.031,104.0,103.0,102.0,13.4,1505.2,353.5,-0.8,1.8,2471.464,13.29,0.03,342.8
2023-09-03T02:19:03,42.805,6.029,0.006,0.011,-0.035,103.0,104.0,102.0,13.4,1505.2,348.9,-0.7,1.8,2471.438,13.29,0.012,28.6
2023-09-03T02:22:03,42.805,6.029,0.002,0.013,0.011,104.0,103.0,103.0,13.3,1505.2,330.3,-0.7,1.8,2471.392,13.29,0.013,8.7
2023-09-03T02:25:03,42.805,6.029,0.002,0.022,-0.031,103.0,103.0,103.0,13.4,1505.2,351.4,-0.8,1.8,2471.39,13.29,0.022,5.2
2023-09-03T02:28:03,42.805,6.029,0.0,0.018,0.021,103.0,105.0,100.0,13.4,1505.2,343.3,-0.8,1.8,2471.446,13.29,0.018,0.0
2023-09-03T02:31:03,42.805,6.029,0.0,0.005,-0.028,104.0,104.0,103.0,13.4,1505.2,333.4,-0.8,1.9,2471.387,13.29,0.005,0.0
2023-09-03T02:34:03,42.805,6.029,-0.022,0.001,-0.036,103.0,105.0,101.0,13.4,1505.2,323.4,-0.8,1.8,2471.417,13.29,0.022,272.6
2023-09-03T02:37:03,42.805,6.029,0.0,0.021,0.023,104.0,103.0,102.0,13.4,1505.2,331.7,-0.8,1.9,2471.38,13.29,0.021,0.0
2023-09-03T02:40:03,42.805,6.029,-0.003,0.008,-0.026,104.0,103.0,101.0,13.4,1505.2,329.3,-0.7,1.8,2471.401,13.29,0.008,339.4
2023-09-03T02:43:03,42.805,6.029,-0.004,0.017,0.029,104.0,102.0,102.0,13.4,1505.2,327.8,-0.8,1.8,2471.382,13.29,0.017,346.8
2023-09-03T02:46:03,42.805,6.029,-0.011,0.012,-0.011,102.0,105.0,103.0,13.4,1505.2,333.4,-0.8,1.8,2471.358,13.29,0.016,317.5
2023-09-03T02:49:03,42.805,6.029,-0.012,0.007,0.0,103.0,102.0,103.0,13.4,1505.2,335.4,-0.8,1.8,2471.403,13.29,0.013,300.3
2023-09-03T02:52:03,42.805,6.029,0.0,-0.003,0.003,104.0,104.0,102.0,13.3,1505.2,350.3,-0.8,1.8,2471.375,13.29,0.003,180.0
2023-09-03T02:55:03,42.805,6.029,0.001,0.034,0.025,103.0,104.0,101.0,13.4,1505.2,344.8,-0.8,1.9,2471.374,13.29,0.034,1.7
2023-09-03T02:58:03,42.805,6.029,-0.008,0.01,-0.037,102.0,103.0,102.0,13.3,1505.2,344.7,-0.8,1.8,2471.424,13.29,0.012,321.3
2023-09-03T03:04:03,42.805,6.029,0.002,0.015,-0.001,104.0,103.0,101.0,13.4,1505.2,333.4,-0.7,1.8,2471.452,13.29,0.015,7.6
2023-09-03T03:07:03,42.805,6.029,0.0,0.018,-0.006,102.0,104.0,102.0,13.4,1505.2,341.8,-0.7,1.8,2471.433,13.29,0.018,0.0
2023-09-03T03:10:03,42.805,6.029,-0.007,0.014,-0.031,104.0,103.0,102.0,13.3,1505.2,341.9,-0.7,1.8,2471.405,13.29,0.015,333.4
2023-09-03T03:13:03,42.805,6.029,-0.01,0.0,-0.012,103.0,103.0,101.0,13.4,1505.2,326.5,-0.8,1.8,2471.405,13.29,0.01,270.0
2023-09-03T03:16:03,42.805,6.029,-0.023,0.015,-0.03,103.0,103.0,101.0,13.4,1505.2,327.7,-0.8,1.8,2471.43,13.29,0.027,303.1
2023-09-03T03:19:03,42.805,6.029,-0.037,0.025,-0.032,103.0,104.0,101.0,13.3,1505.2,350.1,-0.8,1.8,2471.406,13.29,0.044,304.0
2023-09-03T03:22:03,42.805,6.029,0.028,0.017,0.022,102.0,106.0,102.0,13.4,1505.2,349.9,-0.7,1.8,2471.426,13.29,0.032,58.7
2023-09-03T03:25:03,42.805,6.029,0.018,0.015,-0.023,103.0,103.0,103.0,13.4,1505.2,327.4,-0.7,1.8,2471.398,13.29,0.023,50.2
2023-09-03T03:28:03,42.805,6.029,0.01,0.007,-0.01,104.0,105.0,102.0,13.4,1505.2,339.1,-0.8,1.8,2471.397,13.29,0.012,55.0
2023-09-03T03:31:03,42.805,6.029,0.003,-0.006,-0.016,102.0,103.0,102.0,13.4,1505.2,345.2,-0.8,1.8,2471.394,13.29,0.006,153.4
2023-09-03T03:34:03,42.805,6.029,0.003,0.02,-0.001,103.0,102.0,102.0,13.3,1505.2,339.3,-0.7,1.8,2471.373,13.29,0.02,8.5
2023-09-03T03:37:03,42.805,6.029,0.003,0.021,-0.016,104.0,105.0,101.0,13.3,1505.2,351.2,-0.8,1.8,2471.406,13.29,0.021,8.1
2023-09-03T03:40:03,42.805,6.029,-0.009,0.004,-0.022,104.0,103.0,101.0,13.4,1505.2,335.5,-0.8,1.8,2471.4,13.29,0.009,294.0
2023-09-03T03:43:03,42.805,6.029,0.009,0.007,0.018,104.0,103.0,101.0,13.4,1505.2,326.8,-0.8,1.8,2471.376,13.29,0.011,52.1
2023-09-03T03:46:03,42.805,6.029,0.007,0.006,-0.012,101.0,104.0,102.0,13.4,1505.2,339.7,-0.8,1.8,2471.389,13.29,0.009,49.4
2023-09-03T03:49:03,42.805,6.029,-0.012,0.021,-0.001,104.0,104.0,102.0,13.3,1505.2,353.1,-0.7,1.8,2471.38,13.29,0.024,330.3
2023-09-03T03:52:03,42.805,6.029,0.002,-0.001,0.0,103.0,103.0,102.0,13.4,1505.2,343.3,-0.8,1.8,2471.415,13.29,0.002,116.6
2023-09-03T03:55:03,42.805,6.029,0.004,0.024,0.002,104.0,103.0,101.0,13.4,1505.2,337.1,-0.7,1.8,2471.355,13.29,0.024,9.5
2023-09-03T03:58:03,42.805,6.029,-0.002,-0.006,-0.018,102.0,104.0,101.0,13.4,1505.2,335.6,-0.8,1.8,2471.404,13.3,0.006,198.4
2023-09-03T04:04:03,42.805,6.029,-0.019,0.006,-0.039,104.0,103.0,101.0,13.4,1505.2,331.0,-0.8,1.8,2471.467,13.29,0.019,287.5
2023-09-03T04:07:03,42.805,6.029,0.005,0.011,0.007,104.0,103.0,101.0,13.4,1505.2,347.4,-0.8,1.8,2471.446,13.29,0.012,24.4
2023-09-03T04:10:03,42.805,6.029,0.0,0.026,-0.013,103.0,103.0,102.0,13.4,1505.2,341.9,-0.8,1.8,2471.441,13.29,0.026,0.0
2023-09-03T04:13:03,42.805,6.029,-0.002,0.011,-0.012,103.0,103.0,102.0,13.4,1505.2,333.8,-0.7,1.8,2471.438,13.29,0.011,349.7
2023-09-03T04:16:03,42.805,6.029,0.01,0.014,0.013,104.0,104.0,101.0,13.4,1505.2,354.4,-0.8,1.8,2471.4,13.29,0.017,35.5
2023-09-03T04:19:03,42.805,6.029,0.0,0.027,-0.021,105.0,103.0,102.0,13.4,1505.2,341.9,-0.7,1.8,2471.4,13.29,0.026,0.0
2023-09-03T04:22:03,42.805,6.029,-0.009,0.023,-0.027,103.0,104.0,101.0,13.3,1505.2,349.1,-0.8,1.8,2471.433,13.29,0.024,338.6
2023-09-03T04:25:03,42.805,6.029,0.011,0.019,0.007,103.0,103.0,103.0,13.4,1505.2,333.4,-0.8,1.8,2471.392,13.29,0.021,30.1
2023-09-03T04:28:03,42.805,6.029,0.015,0.004,-0.019,103.0,102.0,103.0,13.4,1505.2,345.6,-0.8,1.8,2471.344,13.3,0.015,75.1
2023-09-03T04:31:03,42.805,6.029,0.024,0.017,-0.04,103.0,104.0,101.0,13.4,1505.2,343.0,-0.8,1.8,2471.39,13.3,0.029,54.7
2023-09-03T04:34:03,42.805,6.029,-0.004,0.032,0.002,103.0,102.0,102.0,13.4,1505.2,351.8,-0.8,1.8,2471.405,13.3,0.032,352.9
2023-09-03T04:37:03,42.805,6.029,-0.012,0.008,-0.024,104.0,104.0,102.0,13.3,1505.2,330.2,-0.8,1.8,2471.393,13.3,0.014,303.7
2023-09-03T04:40:03,42.805,6.029,0.016,0.019,-0.005,105.0,102.0,102.0,13.4,1505.2,344.0,-0.8,1.8,2471.422,13.3,0.024,40.1
2023-09-03T04:43:03,42.805,6.029,0.002,0.003,-0.004,103.0,103.0,101.0,13.4,1505.2,342.3,-0.8,1.8,2471.386,13.3,0.003,33.7
2023-09-03T04:46:03,42.805,6.029,-0.007,0.008,0.009,102.0,104.0,100.0,13.4,1505.2,348.8,-0.8,1.8,2471.412,13.3,0.01,318.8
2023-09-03T04:49:03,42.805,6.029,-0.022,0.03,0.028,103.0,102.0,102.0,13.4,1505.2,325.8,-0.8,1.8,2471.397,13.3,0.037,323.7
2023-09-03T04:52:03,42.805,6.029,-0.01,0.033,0.034,104.0,101.0,102.0,13.4,1505.2,331.6,-0.8,1.8,2471.403,13.3,0.034,343.1
2023-09-03T04:55:03,42.805,6.029,-0.005,0.0,-0.011,104.0,104.0,102.0,13.3,1505.2,336.9,-0.7,1.8,2471.394,13.3,0.005,270.0
2023-09-03T04:58:03,42.805,6.029,0.02,0.004,-0.019,104.0,103.0,101.0,13.4,1505.2,334.6,-0.8,1.8,2471.419,13.29,0.02,78.7
2023-09-03T05:04:03,42.805,6.029,-0.003,0.023,-0.014,102.0,105.0,102.0,13.3,1505.2,340.8,-0.8,1.8,2471.461,13.29,0.023,352.6
2023-09-03T05:07:03,42.805,6.029,0.004,0.011,-0.018,103.0,103.0,101.0,13.3,1505.2,352.8,-0.8,1.9,2471.467,13.29,0.011,20.0
2023-09-03T05:10:03,42.805,6.029,0.0,0.029,-0.007,103.0,104.0,101.0,13.4,1505.2,352.8,-0.8,1.9,2471.43,13.29,0.028,0.0
2023-09-03T05:13:03,42.805,6.029,-0.008,0.023,-0.025,104.0,102.0,102.0,13.4,1505.2,332.9,-0.8,1.8,2471.441,13.29,0.024,340.8
2023-09-03T05:16:03,42.805,6.029,-0.021,0.008,-0.022,103.0,103.0,102.0,13.4,1505.2,343.5,-0.8,1.8,2471.453,13.29,0.022,290.9
2023-09-03T05:19:03,42.805,6.029,0.008,-0.006,0.0,103.0,103.0,101.0,13.3,1505.2,343.7,-0.8,1.8,2471.445,13.29,0.01,126.9
2023-09-03T05:22:03,42.805,6.029,-0.005,0.01,-0.011,103.0,104.0,101.0,13.3,1505.2,346.4,-0.8,1.8,2471.394,13.29,0.011,333.4
2023-09-03T05:25:03,42.805,6.029,0.015,-0.005,-0.025,104.0,103.0,105.0,13.4,1505.2,326.0,-0.8,1.8,2471.441,13.29,0.015,108.4
2023-09-03T05:28:03,42.805,6.029,0.011,-0.004,-0.006,105.0,102.0,102.0,13.3,1505.2,330.7,-0.7,1.8,2471.469,13.29,0.011,110.0
2023-09-03T05:31:03,42.805,6.029,0.018,0.008,-0.019,103.0,103.0,102.0,13.4,1505.2,351.8,-0.8,1.8,2471.427,13.29,0.019,66.0
2023-09-03T05:34:03,42.805,6.029,-0.004,0.0,0.002,104.0,105.0,103.0,13.3,1505.2,341.9,-0.8,1.8,2471.428,13.29,0.004,270.0
2023-09-03T05:37:03,42.805,6.029,0.018,0.01,0.008,104.0,103.0,102.0,13.3,1505.2,334.2,-0.7,1.8,2471.42,13.29,0.02,60.9
2023-09-03T05:40:03,42.805,6.029,0.013,0.002,-0.013,104.0,105.0,100.0,13.4,1505.2,342.5,-0.7,1.8,2471.465,13.29,0.013,81.3
2023-09-03T05:43:03,42.805,6.029,0.016,-0.002,-0.005,105.0,103.0,101.0,13.3,1505.2,353.0,-0.8,1.8,2471.453,13.3,0.016,97.1
2023-09-03T05:46:03,42.805,6.029,-0.004,0.013,0.015,106.0,103.0,103.0,13.4,1505.2,346.2,-0.8,1.8,2471.398,13.29,0.013,342.9
2023-09-03T05:49:03,42.805,6.029,-0.007,0.008,0.003,103.0,103.0,101.0,13.4,1505.2,353.1,-0.8,1.8,2471.44,13.29,0.01,318.8
2023-09-03T05:52:03,42.805,6.029,0.016,0.009,-0.03,103.0,103.0,102.0,13.3,1505.2,344.6,-0.8,1.8,2471.41,13.29,0.018,60.6
2023-09-03T05:55:03,42.805,6.029,-0.035,0.001,-0.024,102.0,104.0,101.0,13.3,1505.2,337.2,-0.8,1.8,2471.414,13.3,0.035,271.6
2023-09-03T05:58:03,42.805,6.029,0.013,-0.007,-0.002,105.0,103.0,101.0,13.3,1505.2,342.2,-0.8,1.8,2471.423,13.3,0.014,118.3
2023-09-03T06:04:03,42.805,6.029,0.006,0.006,-0.019,103.0,104.0,101.0,13.4,1505.2,350.7,-0.8,1.8,2471.464,13.29,0.008,45.0
2023-09-03T06:07:03,42.805,6.029,-0.005,-0.006,-0.023,103.0,103.0,103.0,13.4,1505.2,325.7,-0.8,1.8,2471.532,13.29,0.007,219.8
2023-09-03T06:10:03,42.805,6.029,0.014,-0.005,-0.002,103.0,103.0,102.0,13.3,1505.2,327.8,-0.8,1.8,2471.474,13.29,0.014,109.6
2023-09-03T06:13:03,42.805,6.029,0.006,-0.009,-0.044,104.0,104.0,102.0,13.4,1505.2,341.2,-0.8,1.8,2471.467,13.29,0.01,146.3
2023-09-03T06:16:03,42.805,6.029,-0.012,0.024,-0.009,103.0,104.0,101.0,13.4,1505.2,341.5,-0.8,1.8,2471.502,13.29,0.026,333.4
2023-09-03T06:19:03,42.805,6.029,0.0,0.0,-0.016,103.0,103.0,101.0,13.3,1505.2,342.8,-0.8,1.8,2471.47,13.29,0.0,0.0
2023-09-03T06:22:03,42.805,6.029,0.008,-0.002,-0.024,103.0,103.0,102.0,13.4,1505.2,343.4,-0.8,1.8,2471.509,13.29,0.008,104.0
2023-09-03T06:25:03,42.805,6.029,-0.002,-0.004,-0.002,104.0,104.0,102.0,13.3,1505.2,332.0,-0.8,1.8,2471.434,13.29,0.004,206.6
2023-09-03T06:28:03,42.805,6.029,0.022,-0.001,0.001,104.0,103.0,101.0,13.3,1505.2,343.4,-0.8,1.8,2471.474,13.29,0.022,92.6
2023-09-03T06:31:03,42.805,6.029,-0.001,0.004,-0.028,102.0,103.0,101.0,13.4,1505.2,323.1,-0.8,1.8,2471.474,13.29,0.004,346.0
2023-09-03T06:34:03,42.805,6.029,0.002,-0.007,-0.014,104.0,103.0,100.0,13.3,1505.2,329.9,-0.7,1.8,2471.49,13.29,0.007,164.1
2023-09-03T06:37:03,42.805,6.029,0.0,0.001,-0.004,103.0,104.0,102.0,13.4,1505.2,342.5,-0.7,1.8,2471.483,13.29,0.001,0.0
2023-09-03T06:40:03,42.805,6.029,0.022,0.006,-0.01,104.0,102.0,102.0,13.3,1505.2,344.0,-0.7,1.8,2471.516,13.29,0.022,74.7
2023-09-03T06:43:03,42.805,6.029,-0.004,0.006,0.009,104.0,103.0,104.0,13.4,1505.2,343.9,-0.8,1.8,2471.484,13.29,0.007,326.3
2023-09-03T06:46:03,42.805,6.029,0.016,0.01,-0.018,103.0,103.0,103.0,13.4,1505.2,333.9,-0.8,1.8,2471.479,13.29,0.018,58.0
2023-09-03T06:49:03,42.805,6.029,-0.015,-0.013,-0.025,104.0,103.0,101.0,13.4,1505.2,322.3,-0.7,1.8,2471.472,13.29,0.019,229.1
2023-09-03T06:52:03,42.805,6.029,0.017,-0.008,-0.012,104.0,105.0,101.0,13.4,1505.2,344.6,-0.8,1.9,2471.499,13.29,0.018,115.2
2023-09-03T06:55:03,42.805,6.029,0.026,-0.002,-0.009,105.0,103.0,101.0,13.4,1505.2,346.2,-0.8,1.8,2471.521,13.29,0.026,94.4
2023-09-03T06:58:03,42.805,6.029,-0.013,0.011,-0.009,105.0,103.0,102.0,13.4,1505.2,329.8,-0.8,1.8,2471.528,13.29,0.017,310.2
2023-09-03T07:04:03,42.805,6.029,0.022,0.003,-0.006,103.0,103.0,101.0,13.3,1505.2,330.9,-0.8,1.8,2471.575,13.29,0.022,82.2
2023-09-03T07:07:03,42.805,6.029,-0.014,-0.012,-0.05,103.0,104.0,102.0,13.4,1505.2,336.8,-0.8,1.8,2471.586,13.29,0.018,229.4
2023-09-03T07:10:03,42.805,6.029,-0.012,0.02,-0.012,104.0,104.0,102.0,13.4,1505.2,331.6,-0.8,1.8,2471.538,13.29,0.023,329.0
2023-09-03T07:13:03,42.805,6.029,0.019,-0.001,-0.002,103.0,102.0,102.0,13.4,1505.2,336.1,-0.8,1.8,2471.545,13.29,0.019,93.0
2023-09-03T07:16:03,42.805,6.029,0.019,0.0,-0.026,103.0,102.0,102.0,13.4,1505.2,332.5,-0.8,1.8,2471.505,13.29,0.019,90.0
2023-09-03T07:19:03,42.805,6.029,0.001,0.029,0.002,105.0,102.0,101.0,13.4,1505.2,344.3,-0.8,1.8,2471.519,13.29,0.029,2.0
2023-09-03T07:22:03,42.805,6.029,-0.018,0.011,-0.004,104.0,102.0,101.0,13.4,1505.2,333.8,-0.7,1.8,2471.535,13.29,0.021,301.4
2023-09-03T07:25:03,42.805,6.029,0.017,0.024,0.018,103.0,103.0,102.0,13.3,1505.2,339.7,-0.8,1.8,2471.551,13.3,0.029,35.3
2023-09-03T07:28:03,42.805,6.029,0.013,0.008,-0.025,104.0,104.0,101.0,13.3,1505.2,346.2,-0.8,1.8,2471.494,13.3,0.015,58.4
2023-09-03T07:31:03,42.805,6.029,-0.011,0.001,-0.003,106.0,103.0,102.0,13.3,1505.2,329.5,-0.8,1.8,2471.558,13.3,0.011,275.2
2023-09-03T07:34:03,42.805,6.029,-0.008,0.003,-0.018,102.0,103.0,102.0,13.4,1505.2,327.3,-0.8,1.8,2471.527,13.3,0.008,290.6
2023-09-03T07:37:03,42.805,6.029,-0.002,0.007,-0.012,104.0,107.0,102.0,13.4,1505.2,341.5,-0.8,1.8,2471.528,13.3,0.007,344.1
2023-09-03T07:40:03,42.805,6.029,0.001,-0.01,-0.037,103.0,105.0,101.0,13.3,1505.2,344.5,-0.8,1.8,2471.52,13.3,0.01,174.3
2023-09-03T07:43:03,42.805,6.029,-0.006,0.006,-0.015,104.0,104.0,101.0,13.3,1505.2,351.2,-0.7,1.8,2471.52,13.3,0.008,315.0
2023-09-03T07:46:03,42.805,6.029,0.009,0.004,-0.014,105.0,103.0,101.0,13.3,1505.2,340.5,-0.8,1.8,2471.547,13.3,0.009,66.0
2023-09-03T07:49:03,42.805,6.029,-0.007,0.015,-0.019,104.0,102.0,101.0,13.4,1505.2,352.7,-0.7,1.8,2471.548,13.3,0.016,335.0
2023-09-03T07:52:03,42.805,6.029,0.013,0.003,-0.012,102.0,103.0,102.0,13.4,1505.2,345.2,-0.8,1.8,2471.525,13.3,0.013,77.0
2023-09-03T07:55:03,42.805,6.029,-0.005,0.019,-0.028,104.0,103.0,101.0,13.3,1505.2,342.4,-0.8,1.8,2471.567,13.3,0.019,345.3
2023-09-03T07:58:03,42.805,6.029,-0.001,0.0,-0.008,104.0,103.0,102.0,13.3,1505.2,328.5,-0.8,1.8,2471.544,13.3,0.001,270.0
2023-09-03T08:04:03,42.805,6.029,-0.003,-0.002,-0.015,102.0,102.0,101.0,13.4,1505.2,342.2,-0.7,1.8,2471.579,13.29,0.003,236.3
2023-09-03T08:07:03,42.805,6.029,-0.012,-0.005,-0.027,105.0,103.0,102.0,13.3,1505.2,323.3,-0.8,1.8,2471.605,13.3,0.013,247.4
2023-09-03T08:10:03,42.805,6.029,0.0,0.016,-0.024,103.0,103.0,102.0,13.4,1505.2,350.8,-0.8,1.9,2471.576,13.3,0.016,0.0
2023-09-03T08:13:03,42.805,6.029,-0.044,0.01,-0.006,104.0,104.0,101.0,13.3,1505.2,324.6,-0.8,1.8,2471.603,13.3,0.045,282.8
2023-09-03T08:16:03,42.805,6.029,0.003,0.009,0.013,105.0,103.0,101.0,13.4,1505.2,346.2,-0.8,1.8,2471.603,13.3,0.009,18.4
2023-09-03T08:19:03,42.805,6.029,0.006,0.004,0.0,102.0,103.0,102.0,13.4,1505.2,330.1,-0.8,1.8,2471.576,13.3,0.007,56.3
2023-09-03T08:22:03,42.805,6.029,0.0,0.0,-0.009,104.0,104.0,101.0,13.4,1505.2,337.8,-0.8,1.8,2471.598,13.3,0.0,0.0
2023-09-03T08:25:03,42.805,6.029,-0.006,0.012,-0.028,103.0,104.0,101.0,13.4,1505.2,330.3,-0.8,1.8,2471.585,13.3,0.013,333.4
2023-09-03T08:28:03,42.805,6.029,0.003,0.009,0.0,105.0,103.0,102.0,13.4,1505.2,340.6,-0.7,1.8,2471.601,13.3,0.009,18.4
2023-09-03T08:31:03,42.805,6.029,0.0,0.007,0.004,103.0,103.0,101.0,13.3,1505.2,353.0,-0.8,1.8,2471.583,13.3,0.007,0.0
2023-09-03T08:34:03,42.805,6.029,-0.024,0.003,-0.003,104.0,104.0,101.0,13.3,1505.2,322.5,-0.8,1.8,2471.559,13.3,0.024,277.1
2023-09-03T08:37:03,42.805,6.029,0.009,-0.007,0.0,105.0,103.0,105.0,13.4,1505.2,324.2,-0.8,1.8,2471.589,13.3,0.011,127.9
2023-09-03T08:40:03,42.805,6.029,-0.011,-0.003,-0.006,103.0,104.0,101.0,13.3,1505.2,343.6,-0.7,1.8,2471.572,13.3,0.011,254.7
2023-09-03T08:43:03,42.805,6.029,-0.013,0.001,-0.013,104.0,103.0,102.0,13.4,1505.2,349.5,-0.8,1.8,2471.556,13.3,0.013,274.4
2023-09-03T08:46:03,42.805,6.029,-0.01,0.012,0.004,103.0,107.0,102.0,13.4,1505.2,345.1,-0.8,1.8,2471.568,13.3,0.015,320.2
2023-09-03T08:49:03,42.805,6.029,0.008,0.003,-0.009,103.0,102.0,102.0,13.4,1505.2,338.0,-0.8,1.8,2471.561,13.3,0.008,69.4
2023-09-03T08:52:03,42.805,6.029,-0.006,0.007,-0.026,106.0,103.0,104.0,13.4,1505.2,354.2,-0.8,1.9,2471.563,13.3,0.009,319.4
2023-09-03T08:55:03,42.805,6.029,0.003,0.019,0.003,104.0,103.0,103.0,13.4,1505.2,329.4,-0.8,1.8,2471.534,13.3,0.019,9.0
2023-09-03T08:58:03,42.805,6.029,-0.001,0.0,-0.012,104.0,103.0,102.0,13.4,1505.2,342.3,-0.7,1.8,2471.587,13.3,0.001,270.0
2023-09-03T09:04:03,42.805,6.029,-0.003,0.003,-0.06,104.0,103.0,101.0,13.4,1505.2,325.7,-0.7,1.8,2471.615,13.29,0.004,315.0
2023-09-03T09:07:03,42.805,6.029,0.013,0.005,-0.019,104.0,103.0,102.0,13.4,1505.2,336.8,-0.8,1.8,2471.605,13.29,0.013,69.0
2023-09-03T09:10:03,42.805,6.029,-0.01,0.0,-0.031,103.0,103.0,101.0,13.4,1505.2,340.0,-0.8,1.8,2471.595,13.29,0.01,270.0
2023-09-03T09:13:03,42.805,6.029,0.008,0.0,-0.017,104.0,103.0,102.0,13.4,1505.2,340.9,-0.8,1.8,2471.609,13.29,0.008,90.0
2023-09-03T09:16:03,42.805,6.029,-0.008,0.007,0.001,105.0,103.0,101.0,13.4,1505.2,354.2,-0.8,1.8,2471.587,13.29,0.01,311.2
2023-09-03T09:19:03,42.805,6.029,0.007,-0.019,-0.017,104.0,102.0,103.0,13.4,1505.2,334.6,-0.8,1.8,2471.603,13.29,0.02,159.8
2023-09-03T09:22:03,42.805,6.029,0.009,0.006,-0.029,104.0,103.0,102.0,13.4,1505.2,332.9,-0.8,1.8,2471.576,13.29,0.01,56.3
2023-09-03T09:25:03,42.805,6.029,-0.018,0.005,-0.012,105.0,103.0,102.0,13.4,1505.2,321.6,-0.7,1.8,2471.573,13.29,0.018,285.5
2023-09-03T09:28:03,42.805,6.029,-0.017,0.008,-0.031,103.0,102.0,102.0,13.4,1505.2,329.7,-0.8,1.8,2471.589,13.29,0.018,295.2
2023-09-03T09:31:03,42.805,6.029,-0.01,0.025,-0.022,104.0,102.0,102.0,13.4,1505.2,347.9,-0.7,1.8,2471.585,13.29,0.026,338.2
2023-09-03T09:34:03,42.805,6.029,-0.008,0.021,0.0,104.0,103.0,102.0,13.3,1505.2,338.5,-0.8,1.8,2471.566,13.29,0.022,339.1
2023-09-03T09:37:03,42.805,6.029,0.003,0.0,-0.041,103.0,104.0,101.0,13.3,1505.2,345.7,-0.7,1.8,2471.607,13.29,0.003,90.0
2023-09-03T09:40:03,42.805,6.029,-0.008,0.008,-0.034,104.0,103.0,101.0,13.4,1505.2,349.1,-0.8,1.8,2471.613,13.29,0.011,315.0
2023-09-03T09:43:03,42.805,6.029,0.015,-0.005,-0.032,104.0,101.0,102.0,13.4,1505.2,342.9,-0.8,1.8,2471.567,13.29,0.015,108.4
2023-09-03T09:46:03,42.805,6.029,-0.01,0.0,-0.061,104.0,103.0,102.0,13.4,1505.2,344.2,-0.8,1.8,2471.592,13.29,0.01,270.0
2023-09-03T09:49:03,42.805,6.029,0.001,0.013,-0.02,103.0,103.0,102.0,13.4,1505.2,350.7,-0.8,1.8,2471.579,13.29,0.013,4.4
2023-09-03T09:52:03,42.805,6.029,0.005,-0.004,-0.007,103.0,104.0,102.0,13.4,1505.2,332.9,-0.7,1.8,2471.548,13.29,0.006,128.7
2023-09-03T09:55:03,42.805,6.029,-0.006,-0.003,-0.018,104.0,104.0,102.0,13.3,1505.2,354.4,-0.7,1.8,2471.546,13.29,0.006,243.4
2023-09-03T09:58:03,42.805,6.029,-0.031,0.01,-0.025,103.0,104.0,101.0,13.3,1505.2,323.6,-0.8,1.8,2471.588,13.29,0.032,287.9
2023-09-03T10:04:03,42.805,6.029,-0.011,0.002,-0.015,102.0,104.0,101.0,13.4,1505.2,353.6,-0.8,1.8,2471.576,13.29,0.011,280.3